Regional Weather Roundup
Issued by NWS

Home | Current Version | Previous Version | Graphics & Text | Print | Product List | Glossary On
Versions: 1 2 3 4 5 6 7 8 9 10 11 12 13 14 15 16 17 18 19 20 21 22 23 24 25 26 27 28 29 30 31 32 33 34 35 36 37 38 39 40 41 42 43 44 45 46 47 48 49 50
000
ASUS43 KLSX 260559
RWRMO

WEATHER SUMMARY FOR MISSOURI
NATIONAL WEATHER SERVICE SPRINGFIELD MO
1200 AM CST MON JAN 26 2015

NOTE: "FAIR" INDICATES FEW OR NO CLOUDS BELOW 12,000 FEET WITH NO
       SIGNIFICANT WEATHER AND/OR OBSTRUCTIONS TO VISIBILITY.
       CURRENT SKY AND/OR WEATHER CONDITIONS ARE NOT AVAILABLE FOR
       CHILLICOTHE AND FARMINGTON.

MOZ001>031-035>038-043-044-053-054-260700-
...NORTHERN AND WESTERN MISSOURI...

CITY           SKY/WX    TMP DP  RH WIND       PRES   REMARKS
KANSAS CTY INT CLEAR     30  27  88 CALM      30.10S
6HR MIN TEMP:  26; 6HR MAX TEMP:  37;

KANSAS C DTWN  CLEAR     31  27  85 CALM      30.11S
6HR MIN TEMP:  31; 6HR MAX TEMP:  40;

LEE`S SUMMIT   CLEAR     32  27  81 CALM      30.10F
6HR MIN TEMP:  31; 6HR MAX TEMP:  38;

ST JOSEPH      FOG       24  22  91 CALM      30.10F VSB 1/2
6HR MIN TEMP:  22; 6HR MAX TEMP:  37;

CHILLICOTHE      N/A     34  29  82 CALM      30.10F
6HR MIN TEMP:  33; 6HR MAX TEMP:  35;

KIRKSVILLE     CLOUDY    30  26  85 N8        30.08S WCI  22
6HR MIN TEMP:  28; 6HR MAX TEMP:  30;


$$
MOZ066>068-077>081-088>096-101>105-260700-
...SOUTHWEST MISSOURI...

CITY           SKY/WX    TMP DP  RH WIND       PRES   REMARKS
SPRINGFIELD    CLOUDY    35  30  82 N20       30.08R WCI  24
6HR MIN TEMP:  35; 6HR MAX TEMP:  36; 6HR PCP:  0.01;

JOPLIN         MOCLDY    35  28  75 N7        30.13S WCI  29
6HR MIN TEMP:  35; 6HR MAX TEMP:  41;


$$
MOZ032>034-039>042-045>050-055>058-069>072-260700-
...CENTRAL MISSOURI...

CITY           SKY/WX    TMP DP  RH WIND       PRES   REMARKS
COLUMBIA       CLOUDY    31  27  85 N15       30.08R WCI  20
6HR MIN TEMP:  31; 6HR MAX TEMP:  33;

JEFFERSON CITY CLOUDY    32  27  81 NW12      30.10R WCI  23
6HR MIN TEMP:  32; 6HR MAX TEMP:  35;

ROLLA          CLOUDY    30  27  88 NW13      30.03R WCI  20
6HR MIN TEMP:  30; 6HR MAX TEMP:  33; 6HR PCP: TRACE;

SEDALIA        CLOUDY    33  29  85 NW9       30.11S WCI  25
6HR MIN TEMP:  33; 6HR MAX TEMP:  35;

OSAGE BEACH    CLOUDY    34  27  75 NW6       30.08S WCI  29

$$
MOZ051-052-059>065-260700-
...EAST CENTRAL MISSOURI...

CITY           SKY/WX    TMP DP  RH WIND       PRES   REMARKS
ST LOUIS INTL  CLOUDY    31  23  72 N14       30.02S WCI  21
6HR MIN TEMP:  31; 6HR MAX TEMP:  37; 6HR PCP: TRACE;

SPIRIT OF STL  CLOUDY    31  24  75 N12       30.04R WCI  22
6HR MIN TEMP:  31; 6HR MAX TEMP:  37; 6HR PCP:  0.01;

ST CHARLES     PTCLDY    29  22  75 N15       30.04R WCI  18
6HR MIN TEMP:  29; 6HR MAX TEMP:  35; 6HR PCP:  0.01;


$$
MOZ072>076-082>087-097>100-106>115-260700-
...SOUTH CENTRAL AND SOUTHEAST MISSOURI...

CITY           SKY/WX    TMP DP  RH WIND       PRES   REMARKS
CAPE GIRARDEAU CLOUDY    35  32  88 N24       29.96R WCI  23
6HR MIN TEMP:  35; 6HR MAX TEMP:  44; 6HR PCP:  0.01;

FARMINGTON     CLOUDY    30  27  86 MISG      30.01S
6HR MIN TEMP:  30; 6HR MAX TEMP:  41;

POPLAR BLUFF   CLOUDY    38  30  73 N13G23    29.97R WCI  30
6HR MIN TEMP:  38; 6HR MAX TEMP:  45;

WEST PLAINS    CLOUDY    33  29  85 NW10      30.03R WCI  25
6HR MIN TEMP:  33; 6HR MAX TEMP:  38; 6HR PCP: TRACE;


$$


USA.gov is the U.S. government's official web portal to all federal, state and local government web resources and services.